Lid_Strength_Index
9 10 10 10 11 11 12 12 11 12 11 11 11 10 9 10 10 10 10 9 9 9
8 8 9 10 9 10 10 11 11 10 10 10 10 10 10 11 11 11 11 11 11 11
7 7 7 9 8 10 10 11 10 10 11 10 10 10 10 11 11 11 11 12 11 11
7 6 9 9 9 11 11 11 11 10 10 10 10 10 9 10 11 12 12 12 12 13
6 7 8 8 8 8 8 9 9 10 9 10 10 10 10 11 11 12 12 13 13 13
5 5 6 6 7 8 8 9 9 8 9 9 9 10 9 10 11 11 12 13 13 13
5 5 6 6 6 7 7 7 7 7 7 7 7 7 8 9 11 12 13 13 14 14
5 5 6 6 6 5 6 6 6 6 6 7 8 8 8 9 11 12 12 13 13 14
7 6 6 6 6 6 7 6 7 8 8 9 8 8 8 8 9 10 11 12 12 12
7 8 8 7 7 8 8 7 7 8 8 9 9 8 9 9 9 9 10 11 12 13
8 10 8 9 9 9 9 9 9 8 9 8 8 7 8 10 9 9 10 11 13 13
10 10 9 10 10 9 8 8 8 8 8 9 8 7 8 9 9 10 12 13 14 14
10 10 10 10 9 8 8 8 8 9 8 8 8 7 8 9 9 11 12 14 14 14
9 9 10 9 8 8 8 8 9 9 8 8 8 8 9 9 9 10 12 12 13 13